Weather in Nikolo-Gora

Russia / Yaroslavl Oblast     58°25′52″N   40°07′13″E
temp.,
°C
wind,
m/s
gust,
m/s
humid.,
%
clouds,
%
prec.,
mm/h
press.,
hPa
HPBL,
m
16 april, fri
fri1600:00+5ene51277100 0.0 1026602
03:00+3ene5137789 0.0 1027525
06:00+3ene5137391 0.0 1027510
09:00+4ene5126394 0.0 1028572
12:00+10ene584224 0.0 1028939
15:00+12ene573629 0.0 10281139
18:00+10ene594763 0.0 1028907
21:00+5ene4126558 0.0 1029405
17 april, sat
sat1700:00+4ene412765 0.0 1030425
03:00+2ene412795 0.0 1030336
06:00+2ene412805 0.0 1031343
09:00+7e59545 0.0 1030650
12:00+11ene57415 0.0 10301125
15:00+12ene46382 0.0 10291373
18:00+11ene47480 0.0 1028767
21:00+6ne310700 0.0 1029237
18 april, sun
sun1800:00+4ene310780 0.0 1029230
03:00+3ene310851 0.0 1029223
06:00+3ene3108349 0.0 1029260
09:00+8ene485899 0.0 1029688
12:00+11ene5747100 0.0 10281484
15:00+12ene574499 0.0 10281810
18:00+10ene4856100 0.0 10281122
21:00+7ene51073100 0.0 1029707
19 april, mon
mon1900:00+5ene4981100 0.0 1030602
03:00+4ene498296 0.0 1030475
06:00+3e498188 0.0 1030529
09:00+6e575987 0.0 1031734
12:00+8e574796 0.0 10311283
15:00+9ese574081 0.0 10301472
18:00+8ese475183 0.0 10301410
21:00+5ese3115697 0.0 1030502
20 april, tue
tue2000:00+3e4115673 0.0 1030472
03:00+1e41164100 0.0 1029389
06:000e4116693 0.0 1029436
09:00+5ese595447 0.0 1027727
12:00+8ese61052100 0.0 10251313
15:00+10ese61153100 0.0 10221395
18:00+6ese51361100 0.0 10211108
21:00+7ese71463100 0.0 10181094